CZ-6A DEB

Satellite information

Favourite Embed

Satellite Type and Status

DEBRISIN ORBIT

Key statistics

Satellite CZ-6A DEB at a glance.

Uptime

969

Days in orbit

Revolutions

≈ 14.5

Per day

Orbit

SSO

Sun Synchronous Orbit

Inclination

98.5

Latest

Satellite identification and parameters

Extended collection of information and parameters for CZ-6A DEB.

Object identification

Identified? True

Debris? True

Object name: CZ-6A DEB

International designator: 2022-151AAL

Object number (NORAD): 55888

Object ID (CCSDS): 55888

Country: PEOPLES REPUBLIC OF CHINA (PRC)

Current information (Y/N): Y

RCS size: SMALL

Orbital parameters

Period: 99.005 minutes

Inclination: 98.4753 deg

SMA: 7089.238 km

Apoapsis: 809.191 km

Periapsis: 613.014 km

RAAN: 204.6541 deg

Eccentricy: 0.0138362

Argument of periapsis: 284.0464 deg

Mean anomaly: 74.5385 deg

Mean motion: 14.54465657 rev/day

Mean motion (dot): 0.00002975 rev/day2

B* drag term: 0.00062644 1/REarth

Two-line elements (TLE)

Creation date: July 6, 2025, 6:05 p.m.

Reference frame: TEME

Reference center: EARTH

Epoch: July 5, 2025, 11:49 p.m. UTC

TLE line 0: 0 CZ-6A DEB

TLE line 1: 1 55888U 22151AAL 25186.99252378 .00002975 00000-0 62644-3 0 9990

TLE line 2: 2 55888 98.4753 204.6541 0138362 284.0464 74.5385 14.54465657134068

Live tracking on map

Real-time ground track for satellite CZ-6A DEB.

In-orbit conjunctions

A list of the most updated potential collisions computed for object CZ-6A DEB.

Target Orbit TCA Probability of collision Miss distance Type
METEOR 1-17 DEB LEO 2024-11-10 21:34:28 0.0001872528 416.0 (m) DEBRIS
ELECTRON KICK STAGE R/B LEO 2024-07-09 06:28:03 0.0001147316 246.0 (m) ROCKET BODY

Associated space launch

Chinese satellite reported for atmospheric/ocean/environmental/spatial parameter research purposes, details TBD.

CZ-6A DEB was lifted into orbit during the mission ‘Long March 6A | Yunhai 3’, on board a Long March 6A space rocket.

The launch took place on Nov. 11, 2022, 10:52 p.m. from Launch Complex 9A.

For more information about the launch, click the button.

Launch to space Long March 6A | Yunhai 3
Long March 6A | Yunhai 3

Agency: N/A

Status: Launch Successful

Launch date: Nov. 11, 2022, 10:52 p.m. UTC

Rocket: Long March 6A

Launch pad: Launch Complex 9A

Location: Taiyuan Satellite Launch Center, People's Republic of China

...

Latest news about this satellite

There are no fresh news available about this satellite. Check back as we update our databases every day.


Newsletter sign-up

Weekly statistics, charts and insights to help you stay on top of the space industry.